Weather History for Placerville, CA

Change the Weather History Date:

Saturday, March 2, 2013

  Actual Average Record
Temperature  
Mean Temperature 60 °F -  
Max Temperature 68 °F 56 °F 68 °F (2013)
Min Temperature 53 °F 36 °F 41 °F (2011)
Degree Days  
Heating Degree Days 4    
Growing Degree Days 10 (Base 50)    
Moisture  
Dew Point 36 °F    
Average Humidity 42    
Maximum Humidity 63    
Minimum Humidity 30    
Precipitation  
Precipitation 0.00 in - - ()
Sea Level Pressure  
Sea Level Pressure 30.21 in    
Wind  
Wind Speed 5 mph (SSE)    
Max Wind Speed 8 mph    
Max Gust Speed -    
Visibility 10 miles    
Events      
Averages and records for this station are not official NWS values.
T = Trace of Precipitation, MM = Missing Value Source: NWS Daily Summary

Daily Weather History Graph

Daily Weather History Graph

Search for Another Location

Airport:

Trip Planner

Search our weather history database for the weather conditions in past years. The results will help you decide how hot, cold, wet, or windy it might be!

Date:

Astronomy

Mar. 02, 2013 Rise Set
Actual Time 6:33 AM PST 5:57 PM PST
Civil Twilight 6:06 AM PST 6:23 PM PST
Nautical Twilight 5:35 AM PST 6:54 PM PST
Astronomical Twilight 5:05 AM PST 7:25 PM PST
Moon 11:38 PM PST (3/2) 9:09 AM PST (3/2)
Length of Visible Light 12h 17m
Length of Day
11h 23m
Waning Gibbous, 73% of the Moon is Illuminated
Mar 2
Waning Gibbous
Mar 4
Last Quarter
Mar 11
New
Mar 19
First Quarter
Mar 27
Full

Hourly Weather History & Observations

Time (PST) Temp. Dew Point Humidity Pressure Visibility Wind Dir Wind Speed Gust Speed Precip Events Conditions
12:15 AM 57.2 °F 37.4 °F 48% 30.31 in 10.0 mi East 4.6 mph - N/A   Clear
12:35 AM 55.4 °F 37.4 °F 51% 30.31 in 10.0 mi East 4.6 mph - N/A   Clear
12:55 AM 57.2 °F 35.6 °F 44% 30.31 in 10.0 mi East 4.6 mph - N/A   Clear
1:15 AM 57.2 °F 35.6 °F 44% 30.31 in 10.0 mi ESE 5.8 mph - N/A   Clear
1:35 AM 57.2 °F 35.6 °F 44% 30.31 in 10.0 mi East 6.9 mph - N/A   Clear
1:55 AM 55.4 °F 35.6 °F 47% 30.30 in 10.0 mi East 6.9 mph - N/A   Clear
2:15 AM 55.4 °F 35.6 °F 47% 30.29 in 10.0 mi East 6.9 mph - N/A   Clear
2:35 AM 55.4 °F 35.6 °F 47% 30.29 in 10.0 mi ESE 5.8 mph - N/A   Clear
2:55 AM 53.6 °F 35.6 °F 51% 30.28 in 10.0 mi East 5.8 mph - N/A   Clear
3:15 AM 57.2 °F 33.8 °F 41% 30.28 in 10.0 mi East 3.5 mph - N/A   Clear
3:35 AM 57.2 °F 32.0 °F 38% 30.27 in 10.0 mi East 5.8 mph - N/A   Clear
3:55 AM 55.4 °F 33.8 °F 44% 30.27 in 10.0 mi East 6.9 mph - N/A   Clear
4:15 AM 57.2 °F 32.0 °F 38% 30.27 in 10.0 mi Calm Calm - N/A   Clear
4:35 AM 57.2 °F 32.0 °F 38% 30.27 in 10.0 mi East 4.6 mph - N/A   Clear
4:55 AM 55.4 °F 32.0 °F 41% 30.26 in 10.0 mi East 6.9 mph - N/A   Clear
5:15 AM 55.4 °F 32.0 °F 41% 30.26 in 10.0 mi ESE 6.9 mph - N/A   Clear
5:55 AM 57.2 °F 28.4 °F 33% 30.26 in 10.0 mi ESE 6.9 mph - N/A   Partly Cloudy
6:15 AM 55.4 °F 28.4 °F 36% 30.26 in 10.0 mi ESE 8.1 mph - N/A   Clear
6:35 AM 57.2 °F 28.4 °F 33% 30.26 in 10.0 mi SE 6.9 mph - N/A   Clear
6:55 AM 57.2 °F 26.6 °F 31% 30.26 in 10.0 mi SE 6.9 mph - N/A   Clear
7:15 AM 57.2 °F 28.4 °F 33% 30.26 in 10.0 mi SE 6.9 mph - N/A   Clear
7:35 AM 57.2 °F 28.4 °F 33% 30.26 in 10.0 mi SE 6.9 mph - N/A   Clear
7:55 AM 57.2 °F 28.4 °F 33% 30.26 in 10.0 mi SE 8.1 mph - N/A   Clear
8:15 AM 59.0 °F 28.4 °F 31% 30.26 in 10.0 mi SE 8.1 mph - N/A   Clear
8:55 AM 60.8 °F 30.2 °F 31% 30.27 in 10.0 mi South 3.5 mph - N/A   Clear
9:15 AM 62.6 °F 32.0 °F 32% 30.27 in 10.0 mi South 4.6 mph - N/A   Clear
9:35 AM 64.4 °F 32.0 °F 30% 30.26 in 10.0 mi SSW 5.8 mph - N/A   Clear
9:55 AM 64.4 °F 33.8 °F 32% 30.26 in 10.0 mi SSW 4.6 mph - N/A   Clear
10:15 AM 64.4 °F 33.8 °F 32% 30.25 in 10.0 mi SW 3.5 mph - N/A   Clear
10:35 AM 66.2 °F 33.8 °F 30% 30.25 in 10.0 mi South 4.6 mph - N/A   Clear
10:55 AM 66.2 °F 33.8 °F 30% 30.25 in 10.0 mi WSW 3.5 mph - N/A   Clear
11:15 AM 66.2 °F 33.8 °F 30% 30.24 in 10.0 mi SSW 4.6 mph - N/A   Clear
11:35 AM 66.2 °F 33.8 °F 30% 30.24 in 10.0 mi SW 8.1 mph - N/A   Clear
11:55 AM 66.2 °F 35.6 °F 32% 30.24 in 10.0 mi West 5.8 mph - N/A   Clear
12:15 PM 68.0 °F 35.6 °F 30% 30.23 in 10.0 mi Calm Calm - N/A   Clear
12:35 PM 66.2 °F 35.6 °F 32% 30.22 in 10.0 mi West 6.9 mph - N/A   Clear
12:55 PM 66.2 °F 37.4 °F 35% 30.21 in 10.0 mi SSW 5.8 mph - N/A   Clear
1:15 PM 66.2 °F 35.6 °F 32% 30.20 in 10.0 mi SW 4.6 mph - N/A   Clear
1:35 PM 66.2 °F 35.6 °F 32% 30.19 in 10.0 mi Calm Calm - N/A   Clear
2:15 PM 64.4 °F 35.6 °F 34% 30.18 in 10.0 mi SSW 4.6 mph - N/A   Clear
2:55 PM 64.4 °F 37.4 °F 37% 30.17 in 10.0 mi West 5.8 mph - N/A   Clear
3:35 PM 64.4 °F 39.2 °F 40% 30.15 in 10.0 mi WSW 3.5 mph - N/A   Clear
3:55 PM 62.6 °F 39.2 °F 42% 30.15 in 10.0 mi SW 5.8 mph - N/A   Clear
4:15 PM 62.6 °F 37.4 °F 39% 30.14 in 10.0 mi SW 3.5 mph - N/A   Clear
4:35 PM 62.6 °F 39.2 °F 42% 30.13 in 10.0 mi Calm Calm - N/A   Clear
4:55 PM 60.8 °F 39.2 °F 45% 30.14 in 10.0 mi West 3.5 mph - N/A   Clear
5:15 PM 60.8 °F 41.0 °F 48% 30.13 in 10.0 mi NNW 4.6 mph - N/A   Partly Cloudy
5:35 PM 59.0 °F 41.0 °F 51% 30.13 in 10.0 mi NNW 3.5 mph - N/A   Clear
5:55 PM 59.0 °F 39.2 °F 48% 30.13 in 10.0 mi NNW 3.5 mph - N/A   Clear
6:15 PM 59.0 °F 39.2 °F 48% 30.13 in 10.0 mi NNW 3.5 mph - N/A   Partly Cloudy
6:55 PM 59.0 °F 39.2 °F 48% 30.13 in 10.0 mi Calm Calm - N/A   Mostly Cloudy
7:15 PM 57.2 °F 41.0 °F 55% 30.13 in 10.0 mi East 4.6 mph - N/A   Mostly Cloudy
7:55 PM 59.0 °F 39.2 °F 48% 30.14 in 10.0 mi Calm Calm - N/A   Mostly Cloudy
8:15 PM 57.2 °F 41.0 °F 55% 30.13 in 10.0 mi ESE 3.5 mph - N/A   Overcast
8:35 PM 57.2 °F 41.0 °F 55% 30.14 in 10.0 mi SE 3.5 mph - N/A   Mostly Cloudy
8:55 PM 57.2 °F 41.0 °F 55% 30.13 in 10.0 mi Calm Calm - N/A   Overcast
9:15 PM 55.4 °F 41.0 °F 58% 30.14 in 10.0 mi SE 5.8 mph - N/A   Overcast
9:35 PM 55.4 °F 41.0 °F 58% 30.13 in 10.0 mi SE 5.8 mph - N/A   Overcast
9:55 PM 55.4 °F 41.0 °F 58% 30.13 in 10.0 mi SE 4.6 mph - N/A   Overcast
10:15 PM 55.4 °F 41.0 °F 58% 30.14 in 10.0 mi SSW 4.6 mph - N/A   Overcast
10:35 PM 55.4 °F 41.0 °F 58% 30.13 in 10.0 mi SSW 3.5 mph - N/A   Overcast
11:15 PM 55.4 °F 41.0 °F 58% 30.13 in 10.0 mi SSE 4.6 mph - N/A   Overcast
11:35 PM 55.4 °F 41.0 °F 58% 30.12 in 10.0 mi Calm Calm - N/A   Overcast
11:55 PM 55.4 °F 42.8 °F 63% 30.13 in 10.0 mi South 4.6 mph - N/A   Overcast